Dubuque, IA

6:52 PM CST on November 18, 2019 (GMT -0600)
Dubuque Regional

Weather History for KDBQ - September, 2019

Change the Weather History Date:

Wednesday, September 4, 2019

  Actual Average Record
Temperature  
Mean Temperature 59 °F 66 °F  
Max Temperature 66 °F 77 °F 97 °F (1925)
Min Temperature 51 °F 57 °F 38 °F (1974)
Degree Days  
Heating Degree Days 6 2  
Month to date heating degree days 6 8  
Since 1 July heating degree days 15 35  
Cooling Degree Days 0 3  
Month to date cooling degree days 14 15  
Year to date cooling degree days 587 591  
Growing Degree Days 9 (Base 50)    
Moisture  
Dew Point 54 °F    
Average Humidity 80    
Maximum Humidity 100    
Minimum Humidity 63    
Precipitation  
Precipitation 0.00 in 0.12 in 2.02 in (1916)
Month to date precipitation 0.35 0.49  
Year to date precipitation 31.48 26.47  
Snow  
Snow 0.00 in 0.00 in - ()
Month to date snowfall 0.0 0.0  
Since 1 July snowfall 0.0 0.0  
Since 1 September snowfall 0.0 0.0  
Snow Depth 0.00 in    
Sea Level Pressure  
Sea Level Pressure 30.14 in    
Wind  
Wind Speed 5 mph ()    
Max Wind Speed 13 mph    
Max Gust Speed 17 mph    
Visibility 10.0 miles    
Events      
T = Trace of Precipitation, MM = Missing Value Source: Averaged Metar Reports

Daily Weather History Graph

Daily Weather History Graph

Search for Another Location

Airport or City:

Astronomy

Sep. 04, 2019 Rise Set
Actual Time 6:30 AM CDT 7:32 PM CDT
Civil Twilight 6:02 AM CDT 8:00 PM CDT
Nautical Twilight 5:27 AM CDT 8:34 PM CDT
Astronomical Twilight 4:51 AM CDT 9:10 PM CDT
Moon 12:39 PM CDT (9/4) 10:59 PM CDT (9/4)
Length of Visible Light 13h 58m
Length of Day
13h 01m
Waxing Crescent, 35% of the Moon is Illuminated
Sep 4
Waxing Crescent
Sep 5
First Quarter
Sep 13
Full
Sep 21
Last Quarter
Sep 28
New

Hourly Weather History & Observations

Time (CDT) Temp. Dew Point Humidity Pressure Visibility Wind Dir Wind Speed Gust Speed Precip Events Conditions
12:53 AM 61.0 °F 54.0 °F 78% 30.00 in 10.0 mi NW 8.1 mph - N/A   Clear
1:53 AM 57.9 °F 54.0 °F 87% 30.01 in 10.0 mi WNW 5.8 mph - N/A   Clear
2:53 AM 55.9 °F 54.0 °F 93% 30.04 in 10.0 mi WNW 5.8 mph - N/A   Clear
3:53 AM 57.0 °F 54.0 °F 89% 30.04 in 10.0 mi NW 9.2 mph - N/A   Clear
4:53 AM 55.9 °F 54.0 °F 93% 30.06 in 10.0 mi NW 8.1 mph - N/A   Clear
5:53 AM 55.0 °F 53.1 °F 93% 30.08 in 10.0 mi NNW 10.4 mph - N/A   Clear
6:53 AM 55.9 °F 53.1 °F 90% 30.11 in 10.0 mi NNW 8.1 mph - N/A   Clear
7:53 AM 57.9 °F 55.0 °F 90% 30.13 in 10.0 mi NNW 9.2 mph - N/A   Clear
8:53 AM 61.0 °F 55.0 °F 81% 30.15 in 10.0 mi North 9.2 mph - N/A   Scattered Clouds
9:17 AM 61.0 °F 54.0 °F 78% 30.16 in 10.0 mi North 10.4 mph - N/A   Mostly Cloudy
9:53 AM 63.0 °F 55.0 °F 75% 30.16 in 10.0 mi NNE 6.9 mph - N/A   Overcast
10:53 AM 63.0 °F 54.0 °F 72% 30.17 in 10.0 mi North 8.1 mph - N/A   Overcast
11:53 AM 62.1 °F 54.0 °F 75% 30.18 in 10.0 mi North 4.6 mph - N/A   Overcast
12:53 PM 63.0 °F 55.0 °F 75% 30.18 in 10.0 mi NNE 8.1 mph - N/A   Overcast
1:53 PM 64.0 °F 55.0 °F 73% 30.18 in 10.0 mi North 4.6 mph - N/A   Overcast
2:53 PM 64.0 °F 54.0 °F 70% 30.18 in 10.0 mi Calm Calm - N/A   Overcast
3:12 PM 64.0 °F 53.1 °F 67% 30.17 in 10.0 mi Calm Calm - N/A   Overcast
3:42 PM 64.9 °F 55.0 °F 70% 30.17 in 10.0 mi NE 3.5 mph - N/A   Overcast
3:53 PM 64.9 °F 54.0 °F 68% 30.17 in 10.0 mi Calm Calm - N/A   Overcast
4:17 PM 64.9 °F 54.0 °F 68% 30.16 in 10.0 mi Calm Calm - N/A   Overcast
4:53 PM 64.9 °F 54.0 °F 68% 30.16 in 10.0 mi Calm Calm - N/A   Overcast
5:53 PM 66.0 °F 53.1 °F 63% 30.17 in 10.0 mi Variable 3.5 mph - N/A   Mostly Cloudy
6:53 PM 64.0 °F 54.0 °F 70% 30.16 in 10.0 mi Calm Calm - N/A   Mostly Cloudy
7:53 PM 60.1 °F 54.0 °F 80% 30.17 in 10.0 mi Calm Calm - N/A   Clear
8:53 PM 55.0 °F 53.1 °F 93% 30.17 in 10.0 mi Calm Calm - N/A   Clear
9:53 PM 54.0 °F 52.0 °F 93% 30.18 in 10.0 mi Calm Calm - N/A   Clear
10:53 PM 52.0 °F 51.1 °F 97% 30.17 in 10.0 mi Calm Calm - N/A   Clear
11:53 PM 51.1 °F 48.9 °F 92% 30.17 in 10.0 mi Calm Calm - N/A   Clear